Theta_e
312 316 317 318 318 316 315 315 315 315 314 315 316 316 316 316 316 314 313 310 309 313 315 314 315 315 315 312 308 306 305 306 305 305 304 303 303 302 302 301 301 300 299 298 297 297 297 296 297 298 299 300 303 306 308 310 311 311 311 313 312 310 311 312 311 311 309 308 307 306 306 303 301 302 303 303 302 302 302 303 303 303 303 304 304 305
311 316 318 318 317 315 314 314 313 312 313 313 315 316 315 316 316 314 312 310 309 313 315 313 313 315 315 311 307 306 306 306 305 305 304 303 302 302 301 301 300 299 298 299 298 297 297 296 296 297 298 299 301 303 305 307 308 309 311 312 310 310 312 312 311 310 309 306 305 305 304 302 300 300 301 300 300 300 300 300 301 301 301 301 301 301
314 317 318 315 312 311 311 311 311 312 313 313 314 315 316 317 317 314 312 310 309 312 315 313 313 316 314 309 306 306 306 305 303 303 303 302 302 301 300 300 299 299 299 298 298 297 296 296 296 296 297 298 299 300 301 303 305 308 310 311 310 311 311 311 311 310 308 306 305 304 301 300 299 298 299 298 298 299 299 299 299 299 299 299 299 299
318 317 315 313 310 310 311 309 310 312 312 314 314 315 317 317 318 318 314 310 309 310 313 313 314 317 313 308 306 304 303 303 301 301 301 301 301 300 299 299 299 299 299 298 297 297 296 296 296 296 296 297 298 299 300 301 303 306 307 308 309 310 309 308 308 307 306 304 303 301 299 299 297 296 296 297 296 297 297 298 298 298 298 298 298 298
319 314 311 312 311 313 313 310 311 313 314 315 314 315 318 317 317 318 315 311 311 310 311 313 316 318 315 311 309 304 302 302 301 300 300 300 299 298 298 298 297 297 297 297 297 297 296 296 295 295 295 296 297 298 298 299 301 303 304 305 306 306 306 305 304 303 302 301 300 299 298 296 295 294 293 293 293 293 294 294 294 295 296 296 296 296
318 312 310 312 312 313 316 314 313 316 317 317 316 315 316 317 316 316 315 313 316 317 312 312 318 318 314 313 311 306 304 303 302 301 301 300 299 298 298 298 297 296 296 296 296 296 296 295 295 294 294 295 295 296 297 298 299 300 302 303 303 303 303 302 302 301 301 300 298 297 296 294 293 292 291 290 290 289 289 289 290 291 291 291 292 292
316 310 311 315 314 315 316 316 315 316 318 319 318 315 314 315 316 315 315 316 318 320 313 310 316 318 315 315 312 307 306 305 303 302 302 301 299 299 299 298 297 296 296 296 295 295 295 295 295 294 293 293 293 294 295 296 298 299 300 301 301 301 301 301 301 301 300 300 298 297 295 292 291 290 289 288 288 288 287 287 287 288 288 288 288 288
314 312 313 316 316 316 316 317 316 314 318 320 316 315 314 314 315 315 316 317 318 318 314 311 315 317 317 316 310 307 308 306 304 304 303 301 300 299 299 298 297 296 296 296 295 295 295 294 294 293 292 292 292 292 293 294 296 298 299 300 300 300 300 299 300 300 299 298 297 296 293 290 289 289 288 288 287 287 287 287 287 287 287 287 287 287
315 315 316 316 316 316 317 319 316 313 318 318 312 311 312 313 315 315 316 316 315 316 317 316 315 316 318 316 309 307 310 310 307 305 304 303 301 300 299 298 297 296 295 295 295 295 294 293 293 292 291 291 291 291 292 293 295 297 298 298 299 298 298 297 298 298 297 296 295 293 291 289 288 288 288 287 287 287 287 287 287 286 286 286 287 287
313 312 313 315 317 318 317 315 313 316 318 313 309 310 311 312 313 314 315 316 314 315 320 318 316 316 318 317 313 311 312 313 310 307 306 304 301 300 299 298 297 295 294 295 295 294 293 292 291 291 290 290 290 290 291 292 293 294 295 296 296 296 295 295 296 296 295 294 292 290 289 288 288 288 288 288 287 287 287 287 286 286 286 286 286 286
308 306 309 314 316 315 312 308 308 314 314 310 311 313 313 312 312 312 313 314 315 318 318 316 315 316 317 318 317 315 313 313 312 308 306 304 301 301 300 298 297 295 295 294 294 293 292 291 290 290 290 289 289 289 290 291 291 292 292 294 295 294 293 294 293 293 292 291 290 289 288 288 288 288 288 288 288 287 287 287 287 286 286 286 286 286
309 309 311 312 310 310 310 308 306 307 308 311 314 315 316 315 313 313 313 314 318 320 315 309 310 314 317 317 315 314 311 309 310 310 307 304 302 301 300 298 296 295 295 294 294 293 292 291 290 290 290 289 289 289 289 290 290 291 291 292 293 292 291 291 291 290 290 289 289 288 288 288 288 288 288 288 288 287 287 287 287 287 286 286 286 286
314 314 313 310 308 309 313 312 308 307 308 312 315 315 320 319 316 317 317 315 318 317 310 307 309 314 316 316 314 313 310 308 308 308 307 305 303 302 300 298 296 295 295 294 293 293 292 291 291 290 290 289 289 289 289 289 289 290 290 290 291 290 289 289 289 289 289 288 288 288 288 288 288 288 288 288 288 287 287 287 287 287 286 286 285 285
319 317 313 312 310 310 314 315 313 312 310 313 316 317 321 320 318 320 317 314 316 314 307 305 309 313 315 314 313 311 308 305 304 304 305 305 304 303 301 298 296 295 294 294 293 293 293 292 291 290 290 290 289 289 288 288 289 289 289 289 289 289 288 289 289 288 288 288 288 288 288 288 288 288 288 288 288 287 287 287 287 287 286 286 286 285
323 322 315 314 314 312 314 315 316 315 312 314 315 316 318 318 319 321 318 317 317 313 307 306 310 315 315 312 307 304 302 300 300 300 301 303 303 302 300 297 296 295 294 294 293 293 293 292 291 290 290 290 289 288 288 288 288 288 289 289 289 288 288 288 288 288 288 288 288 288 288 288 288 288 288 288 288 287 287 287 287 287 286 286 286 286
323 323 314 312 312 311 313 316 315 315 314 313 312 314 316 316 316 315 313 313 313 313 311 309 311 313 312 307 301 300 300 300 300 300 300 301 302 301 299 297 296 295 295 294 293 293 293 291 291 290 290 289 289 288 288 288 288 288 288 288 288 288 288 288 288 288 288 288 288 288 288 288 288 288 288 288 288 288 287 287 287 287 286 286 286 286
320 319 312 310 310 309 310 313 313 314 315 312 312 315 314 313 314 313 311 308 309 315 316 312 312 312 310 308 303 301 303 302 301 301 301 302 301 300 300 298 297 296 295 294 294 293 292 291 291 290 290 289 289 288 288 288 288 288 288 288 288 288 288 288 288 288 288 288 288 288 288 289 289 289 288 288 288 288 288 288 288 287 287 287 286 286
319 318 312 311 312 308 305 309 311 311 313 313 314 316 313 312 313 313 315 313 312 317 317 313 315 314 313 313 307 303 305 305 303 301 301 301 301 300 300 299 297 297 296 295 294 294 293 291 291 290 290 289 289 288 288 288 288 288 288 288 288 288 288 288 288 288 289 288 288 288 289 289 289 289 289 289 289 288 288 288 288 287 287 286 286 286
317 318 313 309 311 308 304 309 312 310 310 311 313 314 313 316 316 314 316 317 317 319 316 312 312 312 314 314 310 307 309 308 304 302 301 301 301 301 301 300 298 297 296 294 294 294 293 292 291 290 290 289 288 288 288 287 288 288 288 288 288 288 288 288 288 288 289 289 289 289 289 289 289 289 288 288 288 288 288 287 287 286 286 285 285 285
314 318 316 309 309 309 307 311 314 312 310 308 309 311 312 314 316 315 315 316 318 318 317 315 313 312 314 313 311 311 311 309 306 303 302 302 302 301 301 301 299 297 296 295 294 294 293 292 291 290 290 289 288 288 288 287 287 288 288 288 288 288 288 288 288 288 288 289 289 289 289 288 288 288 288 288 288 288 288 287 287 286 285 285 285 284
313 316 317 311 308 310 311 313 315 314 311 310 311 312 312 311 311 313 313 312 315 317 317 316 316 314 312 311 312 312 311 310 308 306 305 304 302 302 301 301 300 298 297 296 294 294 294 292 291 290 290 289 288 288 287 287 287 288 288 288 288 288 288 288 288 288 288 288 288 288 288 288 288 288 288 288 288 288 287 287 286 285 285 284 284 284
314 315 316 313 310 313 314 311 310 312 313 313 313 313 313 313 312 315 316 312 311 314 315 314 316 315 310 308 309 310 309 308 308 308 307 304 303 302 302 302 301 299 297 296 294 294 294 292 292 291 290 289 288 288 287 287 288 288 288 288 288 288 288 288 288 288 288 288 288 288 288 288 287 287 287 287 287 287 286 286 285 285 284 284 284 283
316 315 315 315 312 312 311 306 303 306 309 311 312 313 314 314 314 317 318 314 310 310 311 310 313 315 309 304 305 306 305 304 305 307 307 305 304 302 302 301 300 299 297 295 295 294 293 293 292 291 290 289 288 288 288 288 288 288 288 287 288 288 288 288 288 288 288 288 287 287 287 287 287 287 287 287 287 286 286 285 285 284 284 283 283 283
315 315 316 315 312 310 308 305 303 303 307 310 311 311 313 314 315 316 316 314 312 312 311 311 314 314 308 302 302 302 301 301 301 303 305 304 303 302 301 301 300 299 297 295 294 294 293 293 292 291 290 289 289 289 288 288 288 288 288 287 287 288 288 288 288 288 288 287 287 287 287 287 287 287 287 287 286 285 285 285 284 284 284 283 283 282
315 318 318 316 316 315 313 312 310 307 307 311 311 309 312 315 315 314 312 311 313 314 314 313 315 314 308 303 303 301 300 300 300 301 302 303 302 301 300 300 299 298 296 295 294 294 293 293 292 291 290 290 289 289 289 289 288 288 288 287 287 287 288 288 287 287 287 287 287 287 286 286 287 286 287 287 286 285 284 284 284 284 284 284 283 282
316 319 319 317 320 321 320 318 316 312 310 311 310 309 312 313 313 313 313 312 314 314 314 314 315 313 308 305 305 304 302 302 302 300 299 300 301 301 300 300 299 297 297 295 294 294 293 293 292 292 291 290 289 289 289 289 288 288 288 287 287 288 288 287 287 287 287 287 287 286 286 286 286 287 287 286 285 284 284 284 284 284 284 284 284 283
316 318 318 319 320 319 318 317 314 314 314 313 312 310 310 311 311 313 314 314 314 313 312 314 314 314 311 307 307 307 305 305 304 301 299 300 300 300 300 300 299 298 297 296 295 294 293 293 292 292 291 290 290 289 289 289 288 288 288 287 287 287 287 287 287 287 286 286 287 286 286 286 287 287 286 285 284 284 284 284 285 284 284 284 284 283
316 317 316 318 317 314 315 314 313 314 315 313 313 311 309 309 311 314 314 314 314 313 314 315 314 315 313 309 309 308 306 305 305 303 302 301 301 300 299 299 298 298 297 296 295 294 293 293 293 292 291 290 290 289 289 288 288 288 287 287 287 287 287 287 287 287 287 287 287 287 286 287 287 286 285 284 283 283 284 284 285 285 285 284 284 283
315 316 316 316 315 313 313 313 312 313 314 313 313 313 311 309 310 313 314 313 313 315 316 314 312 313 313 310 310 309 307 306 305 304 302 301 301 300 299 298 298 298 297 297 296 295 294 293 293 292 292 291 290 289 289 288 288 288 287 287 287 287 287 287 287 287 287 287 287 287 287 287 286 286 285 283 283 283 284 285 285 285 284 284 283 283
314 315 314 313 314 313 311 309 309 311 312 312 311 312 311 309 309 311 312 312 313 314 314 312 311 311 310 310 310 309 307 305 304 302 301 302 302 300 299 299 298 298 298 297 296 296 294 294 294 293 292 291 289 289 289 288 288 288 287 287 287 287 287 287 288 288 287 287 287 286 286 286 286 285 284 283 282 283 284 285 285 284 284 283 283 282
312 313 311 311 314 312 308 307 308 308 310 311 310 310 310 308 308 309 311 312 311 312 311 310 311 310 309 310 310 308 305 304 304 303 302 303 303 301 299 299 299 299 298 297 297 296 295 294 294 292 291 291 290 289 289 288 288 288 288 287 287 288 288 288 288 288 287 287 286 286 286 286 285 284 283 282 283 284 285 285 284 284 283 283 282 281
311 310 308 310 315 313 307 307 308 308 309 311 311 311 308 307 308 309 309 310 310 311 310 310 311 310 308 308 308 306 305 305 305 304 303 302 302 300 300 300 299 299 299 298 297 296 295 294 294 293 292 291 290 289 289 288 288 288 288 288 288 288 288 288 288 287 287 286 286 286 285 285 284 284 283 283 283 284 285 284 284 284 283 282 281 280
309 310 309 311 315 312 305 305 308 309 311 313 313 312 309 308 309 309 308 308 308 309 310 310 311 310 307 306 306 304 304 304 304 304 303 303 301 299 299 300 299 299 298 297 296 296 295 295 294 293 292 291 291 290 290 289 288 288 288 288 288 288 288 288 287 287 286 286 286 285 285 285 284 283 283 283 284 284 284 284 284 283 281 280 280 279
308 310 310 310 313 309 303 304 308 311 314 313 310 310 310 309 309 309 308 307 307 308 309 310 309 308 306 306 306 305 304 303 303 302 302 301 300 299 298 298 298 298 297 296 296 296 296 296 295 294 293 292 291 291 291 289 288 288 288 288 287 288 288 287 287 286 286 285 285 285 285 284 284 283 283 283 284 284 284 284 283 281 280 279 278 278
308 310 309 309 309 306 303 305 311 312 312 309 304 302 304 306 308 309 308 307 307 307 307 308 307 306 305 305 305 305 303 301 299 297 297 297 298 298 297 297 297 296 296 295 295 295 296 295 295 294 293 293 292 290 290 289 288 288 287 287 287 287 287 287 286 286 285 285 285 285 284 284 284 283 283 284 284 284 283 283 281 280 279 278 277 277
309 309 308 308 307 304 304 308 311 310 308 306 302 298 298 302 304 305 306 305 306 306 306 306 306 305 304 303 302 301 298 295 294 294 294 294 295 296 296 298 298 296 295 295 294 295 295 294 294 294 293 292 291 290 290 289 288 288 287 287 287 287 287 287 286 285 285 285 285 284 284 284 284 283 283 284 284 283 282 281 280 279 278 277 277 276
307 309 309 309 308 306 306 308 309 309 307 307 305 299 298 301 302 303 306 305 304 304 304 304 305 305 304 302 299 295 293 293 295 296 296 294 294 295 296 297 296 295 294 294 293 293 293 292 292 292 292 291 291 290 289 289 288 287 286 286 286 286 286 286 285 285 285 285 285 285 284 284 284 284 284 283 283 282 281 280 279 277 277 277 276 276
304 308 309 311 310 308 308 308 308 309 308 308 307 302 299 301 302 302 304 304 302 302 303 304 305 304 303 301 297 293 294 296 298 298 297 295 293 294 294 293 292 292 292 292 291 291 291 291 291 291 291 291 290 290 289 288 288 287 286 286 286 286 285 285 285 285 285 285 285 285 284 284 284 283 283 282 282 281 280 279 278 277 277 276 276 275
301 304 306 309 310 309 309 309 308 309 308 308 307 301 296 298 301 302 303 303 302 301 301 303 304 303 302 299 295 294 296 297 298 299 297 295 293 292 291 291 291 290 290 290 289 289 289 289 289 289 290 289 289 289 289 288 287 286 286 286 286 285 285 285 286 285 285 286 286 285 284 284 283 283 282 282 281 280 279 278 277 277 276 276 275 275
301 303 305 308 310 309 309 309 308 308 307 306 302 296 293 296 299 303 305 302 299 298 297 299 303 302 300 297 294 294 297 297 298 298 295 293 292 290 290 290 290 289 288 288 288 289 289 288 288 288 288 288 289 289 288 288 287 286 286 286 285 285 286 287 287 286 286 286 285 284 283 283 283 282 282 281 280 279 278 278 277 276 276 275 274 274
301 303 304 306 308 309 310 310 309 308 307 303 298 294 293 296 299 304 305 299 296 297 295 297 302 301 297 295 294 294 297 297 296 296 293 290 291 290 289 288 288 288 288 288 288 289 288 288 289 289 290 290 290 289 288 287 286 286 286 285 285 286 288 288 287 286 285 285 284 283 283 282 282 281 281 280 279 278 278 277 276 275 275 274 274 273
302 302 302 305 307 307 309 309 309 310 307 300 295 292 293 298 302 303 299 295 296 299 295 294 299 298 294 293 294 294 296 294 292 293 292 290 291 291 289 287 287 287 287 287 288 288 289 288 289 289 290 290 290 290 289 288 287 286 285 284 285 288 289 287 286 285 285 284 283 282 282 282 281 281 280 279 279 278 277 276 275 275 274 273 273 272
302 303 302 304 306 305 306 307 308 309 303 296 294 293 293 298 301 298 294 292 294 297 295 293 294 294 292 293 293 293 293 291 290 291 291 289 290 290 288 287 287 287 287 287 287 288 289 289 289 289 290 289 289 289 288 287 287 285 284 285 288 289 287 286 286 285 284 283 282 282 281 281 280 280 279 278 278 277 276 275 274 273 273 272 271 271
302 303 302 304 305 304 305 307 306 304 300 296 297 298 296 298 299 297 296 295 293 292 293 294 293 291 291 293 293 292 291 290 289 290 290 289 289 288 287 287 287 287 287 287 288 289 288 288 289 289 289 288 288 288 288 288 287 284 284 287 289 288 286 285 285 283 282 282 281 281 280 280 279 279 278 277 277 276 275 274 273 272 272 271 270 270
301 300 300 301 302 302 303 302 299 296 295 296 298 299 298 298 298 297 297 298 295 292 291 293 294 291 289 291 291 291 290 289 289 289 289 290 290 289 289 288 286 287 287 287 288 288 288 288 289 288 287 287 287 287 287 288 287 284 286 289 289 287 286 285 283 282 281 281 281 280 279 279 278 278 277 276 275 274 273 273 272 271 271 270 270 269
294 293 295 297 297 297 296 295 294 293 294 295 295 295 295 295 295 294 296 297 297 294 292 292 293 292 289 290 290 290 290 290 289 289 289 289 289 289 288 287 286 286 286 286 287 287 287 287 287 286 285 285 286 286 286 286 286 286 287 288 287 285 285 284 282 281 281 280 280 279 278 278 277 277 276 275 274 273 272 272 271 270 270 270 269 269
291 289 292 295 296 297 296 293 293 294 293 293 294 293 293 293 292 292 294 295 294 293 293 292 291 290 289 289 289 290 291 290 290 290 289 288 288 288 287 287 286 286 286 286 287 288 287 285 284 284 284 284 285 286 286 286 286 286 286 286 285 284 282 281 281 281 280 279 279 278 277 277 277 276 275 274 273 272 271 271 270 270 270 270 269 269
293 291 293 294 294 295 294 291 290 290 290 290 292 292 293 294 293 290 291 292 291 291 291 290 289 289 289 289 289 290 291 290 290 290 290 288 288 288 287 287 286 286 286 287 287 286 285 284 284 284 284 285 287 287 286 286 286 285 284 283 283 282 281 280 280 280 279 279 278 277 277 277 276 275 274 273 272 271 271 270 270 269 270 269 269 268
294 292 293 293 293 292 291 289 288 289 290 290 290 290 292 293 293 291 290 289 288 289 289 288 288 288 289 290 289 290 292 291 289 289 290 289 288 288 287 287 286 286 287 287 286 285 285 285 285 285 284 286 288 287 286 286 286 284 282 281 282 281 280 279 279 278 278 278 277 277 276 275 274 274 273 272 271 270 270 270 270 269 269 269 269 268
292 293 292 291 293 293 292 290 290 291 292 292 291 291 291 291 290 290 290 289 289 290 290 289 288 287 287 288 288 289 291 292 289 289 289 289 288 288 287 286 286 285 285 285 285 284 284 284 285 285 285 286 286 285 285 285 285 282 281 280 280 280 280 279 278 277 276 276 276 276 275 274 273 273 271 271 270 270 269 269 269 269 269 269 269 269
292 294 293 292 294 295 293 292 291 292 293 293 293 292 292 290 290 290 291 291 292 291 289 289 290 289 288 287 286 287 290 291 289 289 289 288 287 287 287 286 286 285 285 285 284 283 283 283 283 283 283 284 284 283 283 284 283 281 280 279 278 279 279 279 278 276 276 276 275 275 274 274 273 272 270 270 269 269 269 269 269 268 268 268 268 267
Wind_Speed
2 4 6 8 8 9 12 12 7 1 3 2 2 3 5 7 6 2 3 2 1 3 7 7 8 12 9 4 6 4 3 3 4 4 3 3 2 2 2 3 3 3 4 3 5 6 7 7 8 9 11 12 15 17 18 19 20 21 23 25 26 26 27 28 28 28 28 28 29 30 31 31 31 30 29 29 28 27 26 25 24 23 23 21 20 20
2 7 11 10 4 4 7 7 3 2 3 3 4 5 5 7 7 2 2 2 1 4 4 2 5 11 6 4 5 4 5 4 3 3 3 3 3 2 2 3 3 3 3 2 4 5 6 7 8 9 12 13 15 17 18 19 20 20 21 22 23 23 24 25 24 24 25 26 27 28 30 30 31 30 29 29 29 28 27 26 25 25 24 23 23 22
5 10 12 5 5 5 3 3 6 6 5 4 4 5 5 5 4 2 2 2 2 4 2 2 5 9 2 5 4 3 3 2 1 1 2 2 3 3 2 2 2 3 3 3 4 4 5 6 7 9 12 14 15 16 17 19 20 21 22 22 23 23 23 22 22 22 24 26 26 28 29 30 31 31 30 30 29 28 27 27 26 26 25 25 25 24
6 8 7 5 7 6 4 4 7 5 5 6 5 5 7 3 2 4 2 3 2 2 2 1 6 8 3 4 3 3 2 2 2 1 1 1 2 2 2 2 2 3 3 3 3 4 4 6 7 9 10 13 15 16 17 18 20 22 23 24 24 23 23 23 23 24 26 27 28 30 31 32 33 32 31 31 30 29 28 28 27 27 26 25 25 24
5 1 1 7 8 8 5 5 8 6 5 7 7 8 9 5 6 6 1 2 2 2 2 2 6 6 4 4 3 3 3 3 3 3 3 2 2 3 3 2 2 2 2 3 3 3 4 5 7 8 9 11 13 15 16 18 20 22 24 25 26 26 26 27 27 28 29 29 30 31 29 29 29 28 27 28 28 29 30 30 29 29 27 26 26 25
4 3 4 8 7 8 7 6 9 8 6 6 8 12 13 10 7 4 2 2 4 3 3 2 5 3 3 4 4 4 4 4 3 4 5 4 4 4 4 4 3 2 2 2 3 3 4 5 6 7 8 9 10 13 15 17 19 22 24 26 27 28 29 28 28 28 28 29 28 26 23 22 22 22 21 20 22 25 29 30 30 30 29 29 28 28
2 4 4 6 7 8 8 7 8 9 6 4 4 9 12 10 5 5 6 5 4 2 1 1 5 3 2 3 5 5 5 5 4 5 6 6 5 5 5 4 5 4 3 3 3 4 4 5 6 7 7 7 8 11 14 16 19 22 24 26 27 27 27 27 26 25 25 26 26 26 26 26 23 21 19 19 21 23 26 29 30 30 30 29 29 28
4 6 4 5 6 7 7 6 7 10 7 2 1 1 6 7 7 8 8 6 3 2 1 2 2 4 5 2 4 5 5 5 6 6 7 7 7 7 6 5 5 5 4 3 3 4 5 5 6 6 6 6 8 11 14 17 19 21 23 24 25 25 25 25 24 24 24 26 27 28 32 30 26 24 23 22 24 25 26 29 29 29 29 28 28 27
3 7 8 9 7 6 6 2 8 13 6 0 2 2 4 4 5 6 6 5 1 1 4 5 3 3 5 2 3 3 4 6 8 9 10 10 9 8 8 7 6 5 4 3 4 4 5 5 5 6 6 6 9 13 16 19 21 22 23 23 24 24 24 24 24 25 26 27 29 30 33 32 29 27 26 24 25 26 27 28 28 28 27 27 26 25
1 3 4 7 7 6 3 3 4 10 5 3 5 6 7 5 4 3 3 3 2 3 7 6 7 5 5 3 4 3 4 7 7 9 11 10 10 9 9 8 7 5 4 4 4 4 4 5 5 5 6 7 11 15 17 20 23 23 24 24 25 25 25 26 26 27 27 28 30 31 33 33 30 27 26 25 25 24 25 26 26 26 25 25 24 24
2 1 2 2 3 2 5 5 2 1 3 7 7 7 7 5 4 2 1 1 2 5 4 2 5 5 4 4 5 4 1 2 6 8 9 10 11 11 9 8 8 6 6 5 5 5 4 4 4 5 6 8 12 16 18 21 23 24 25 26 27 27 26 27 27 27 28 29 30 31 32 32 30 28 26 25 24 22 23 23 23 23 23 22 22 21
1 1 1 1 1 3 6 5 4 3 2 4 4 5 5 3 3 2 2 2 5 5 1 2 0 5 5 3 3 3 1 2 5 8 11 13 12 11 9 8 8 7 6 6 6 6 6 6 6 6 7 8 10 13 17 20 23 25 26 27 28 28 27 28 28 28 29 29 30 30 30 29 28 27 26 24 23 22 21 20 19 20 20 20 20 19
2 3 1 1 0 3 5 5 4 2 2 3 4 7 6 4 4 4 3 3 5 3 2 1 1 4 6 5 4 3 3 3 2 3 8 13 14 12 10 8 7 7 7 7 6 6 7 8 8 8 8 8 9 11 15 20 23 25 26 27 29 29 28 29 28 29 29 29 29 28 27 27 26 25 25 24 23 21 19 19 18 18 18 18 19 18
3 2 2 3 1 3 8 7 5 5 6 7 8 8 8 5 4 5 3 2 4 1 2 1 1 2 3 4 5 3 1 1 1 2 1 8 13 12 10 9 7 7 7 7 6 6 8 9 9 9 9 9 9 11 15 20 23 26 26 28 30 30 29 29 28 28 28 28 27 26 26 26 25 25 24 23 22 21 19 19 19 18 17 18 18 17
7 3 5 8 3 6 11 6 2 6 8 6 4 3 5 5 4 4 3 3 2 2 3 1 2 4 4 1 2 2 2 2 0 1 2 3 8 9 9 9 8 8 8 7 7 8 9 10 9 9 9 9 9 12 16 20 23 26 27 28 30 30 29 28 28 27 27 27 26 25 25 24 24 24 24 23 22 20 19 19 18 18 17 17 17 16
8 5 2 3 1 8 11 2 2 5 6 2 1 1 4 3 2 1 0 1 2 1 3 3 3 3 2 1 1 1 1 1 1 1 3 4 7 8 8 9 9 9 9 8 8 8 10 10 9 9 9 10 11 13 17 21 24 26 28 29 29 30 28 27 27 27 27 26 25 24 24 23 23 23 22 21 20 19 19 18 17 17 16 16 16 15
5 2 2 2 1 3 3 1 1 1 3 3 3 5 2 1 2 3 1 2 2 4 3 4 4 3 1 2 2 1 2 4 3 3 5 6 9 10 9 9 10 9 9 9 8 9 11 11 11 10 10 11 13 15 18 22 24 27 29 29 29 29 28 27 27 27 26 25 25 24 23 22 21 21 20 19 18 17 16 16 15 15 14 14 14 14
4 2 1 1 2 2 2 0 2 2 0 4 5 5 2 1 1 1 2 2 2 5 3 4 7 6 5 3 2 3 5 7 7 5 6 7 9 11 11 10 10 10 9 9 9 10 12 12 12 12 12 13 14 16 19 22 25 27 28 29 29 29 29 27 27 26 25 24 24 22 21 20 19 18 17 16 15 14 13 13 13 12 12 12 12 13
3 2 1 1 2 3 1 2 3 1 1 1 2 2 2 2 3 2 3 2 3 5 3 4 5 5 7 5 5 7 10 9 9 8 8 10 12 12 12 12 12 11 9 9 10 10 12 13 13 13 14 15 15 17 19 23 26 27 28 28 28 28 28 27 26 25 24 23 22 20 19 17 16 15 14 13 12 12 11 11 11 11 11 11 11 12
2 3 2 2 1 3 2 5 7 5 2 1 1 2 1 2 2 3 2 2 3 4 3 3 3 4 6 7 10 13 12 11 11 9 10 12 13 13 12 13 13 12 11 11 10 10 12 14 14 15 16 16 17 18 20 23 26 27 28 28 27 27 27 26 25 24 22 21 19 18 17 15 14 13 12 11 10 9 9 9 9 9 10 10 10 11
2 4 3 3 1 3 5 6 7 8 7 5 6 6 4 1 0 1 1 1 1 4 4 4 4 3 4 4 9 12 9 10 12 11 11 11 13 13 13 14 13 11 12 11 9 10 12 14 15 15 15 15 17 19 21 24 25 26 27 27 27 27 27 26 24 22 21 19 17 16 15 14 12 11 9 8 7 7 7 8 8 8 9 10 10 12
3 3 3 5 4 6 4 0 1 3 4 5 6 8 8 5 4 4 4 2 1 3 2 2 5 2 3 1 3 4 2 6 10 10 9 10 13 14 13 13 12 11 11 10 9 10 12 14 15 15 14 14 16 19 22 24 24 25 26 27 27 27 26 25 23 21 20 18 17 15 14 12 11 9 7 6 5 5 6 6 7 8 9 10 11 12
1 1 3 4 3 4 1 2 0 2 2 2 3 4 6 6 6 7 6 3 2 1 1 1 3 2 2 1 1 1 1 0 4 6 6 7 10 11 11 11 11 9 9 9 9 11 12 13 14 14 15 16 18 20 22 24 24 25 27 28 28 28 26 24 23 21 19 18 17 15 13 11 10 8 6 4 3 3 4 6 7 9 10 11 12 13
1 2 4 3 2 1 2 0 1 1 1 3 3 3 4 5 3 2 2 3 4 5 3 2 4 3 1 0 1 1 1 1 3 6 7 6 6 8 10 10 10 9 8 8 9 11 12 13 14 15 17 18 19 20 22 23 24 25 27 28 29 28 27 25 23 22 20 18 17 15 13 12 10 8 6 3 2 2 4 6 8 9 11 12 13 13
5 4 5 4 3 3 3 3 4 3 3 4 2 2 3 2 4 3 2 2 4 6 8 6 8 3 2 1 2 1 1 2 4 6 7 6 5 7 8 9 9 9 9 9 10 11 13 14 16 17 18 19 20 21 22 23 24 26 28 30 30 29 28 26 24 23 21 19 18 16 14 13 11 8 6 4 2 2 3 5 7 9 11 12 13 14
5 3 6 8 9 9 8 6 6 5 4 1 1 3 4 5 7 5 3 4 6 5 9 8 8 2 3 2 4 3 2 4 5 5 6 6 5 6 7 8 9 9 10 11 11 11 12 14 16 18 19 21 21 22 22 23 25 26 29 31 32 31 29 27 25 24 22 20 18 17 16 14 12 9 7 6 3 1 3 5 7 9 11 13 14 16
2 3 7 10 7 4 3 1 2 6 6 5 4 6 7 9 9 7 4 6 6 5 6 10 10 5 4 6 6 5 4 5 5 6 6 6 7 7 6 7 8 8 9 10 9 9 10 12 15 19 20 22 22 22 23 25 27 29 32 33 32 31 29 28 26 24 23 21 19 18 17 14 12 10 9 7 4 1 2 5 7 9 12 14 15 16
2 4 7 7 4 1 3 2 2 6 8 9 8 8 10 10 9 10 9 6 6 5 8 10 8 10 10 8 9 7 6 6 5 6 6 6 6 6 5 6 8 9 10 9 9 10 11 12 15 19 22 21 21 22 24 27 30 33 34 34 33 32 31 29 27 25 23 22 21 20 18 15 13 12 10 7 4 1 2 5 8 10 12 14 16 17
3 4 3 2 3 0 4 2 2 3 3 6 9 11 12 12 12 13 12 7 7 8 12 5 8 11 12 7 10 9 8 8 6 5 4 3 4 5 6 7 8 10 11 12 13 13 13 14 16 20 22 21 21 22 24 26 30 32 34 34 34 34 32 30 27 26 24 24 23 21 19 16 14 12 10 7 4 2 3 5 8 10 12 14 15 17
2 2 1 2 3 0 4 2 1 2 1 3 8 11 11 13 14 12 12 11 11 14 14 4 6 11 7 6 8 6 5 4 3 2 3 3 4 6 7 8 9 10 12 13 14 14 13 14 15 17 18 19 21 23 24 27 32 34 34 35 35 34 32 30 27 26 26 25 24 22 19 17 15 13 10 7 5 3 4 6 8 10 12 14 15 17
2 2 3 3 3 1 1 2 2 1 1 3 9 12 7 8 10 12 14 14 11 13 14 7 7 10 3 6 5 2 4 3 3 4 5 5 5 6 7 8 9 10 11 12 12 11 11 11 13 15 17 19 23 25 27 31 35 36 36 37 36 35 33 30 28 27 27 26 24 22 19 17 15 13 11 8 6 4 5 7 9 11 13 14 15 17
2 2 2 2 3 3 1 4 3 2 1 5 14 15 8 10 9 12 12 10 9 11 12 9 10 10 4 7 5 3 4 5 6 6 6 5 6 6 7 9 10 9 9 9 10 10 10 11 14 17 18 21 24 27 32 36 36 37 38 38 37 35 33 31 29 28 27 26 24 22 20 18 15 13 11 9 6 5 6 8 10 12 13 15 15 16
2 3 2 1 4 1 1 3 4 4 1 7 12 11 12 14 14 11 9 10 12 11 9 9 11 7 4 7 7 6 7 8 9 8 7 6 6 7 8 9 8 8 8 9 9 10 11 13 17 19 22 27 31 34 39 41 40 41 41 39 37 36 33 31 30 28 27 26 24 22 20 18 15 13 12 9 6 6 7 9 11 13 14 15 15 16
2 4 2 2 3 1 0 2 3 3 7 7 1 2 8 14 16 14 13 14 13 11 9 8 7 5 4 7 8 9 9 9 7 6 5 4 5 6 8 8 7 7 8 8 8 9 11 14 17 19 23 31 37 38 39 38 38 40 39 38 37 35 33 32 30 29 28 26 24 23 20 17 16 14 12 8 7 8 9 10 12 13 15 15 15 16
5 5 2 2 2 1 2 3 4 7 8 3 3 2 2 6 11 13 14 12 11 12 11 10 10 8 6 6 7 8 6 4 2 3 3 4 6 6 6 7 8 8 8 7 8 9 11 13 14 16 20 26 31 32 31 31 33 34 35 36 36 34 33 32 31 29 28 26 25 23 20 18 17 14 11 9 8 9 10 11 13 14 15 15 15 16
6 5 2 2 2 2 3 6 7 3 4 4 1 1 1 3 5 5 9 10 9 10 10 12 12 8 5 6 6 2 2 2 1 4 6 7 7 7 7 8 8 8 8 8 8 10 12 14 16 18 20 23 25 26 27 29 32 33 33 34 35 35 33 32 31 30 29 27 26 24 21 20 17 14 11 10 9 10 11 12 13 14 15 15 15 16
5 5 3 3 4 3 3 7 5 5 8 10 7 5 6 6 6 5 7 8 7 9 10 11 10 8 6 6 3 4 3 0 4 6 7 9 9 9 9 6 4 5 7 7 9 11 12 15 17 18 19 19 21 24 27 29 31 32 33 34 34 34 33 32 32 31 30 29 27 24 23 20 17 14 13 11 11 11 12 13 13 14 15 15 16 17
3 4 4 5 5 4 4 6 5 5 9 11 6 5 6 5 5 5 5 4 3 8 11 11 11 11 8 4 5 5 3 1 6 6 4 7 9 9 7 5 4 6 7 8 9 10 11 13 15 17 18 18 20 23 26 28 30 32 34 34 35 35 34 33 33 33 31 29 27 26 24 21 17 15 13 12 12 12 12 13 14 14 15 16 17 18
2 1 2 4 5 5 6 7 7 7 8 6 2 3 3 3 6 6 1 3 4 7 10 11 10 10 7 5 7 6 4 4 7 5 3 5 7 7 7 6 7 8 7 8 9 9 10 12 14 15 17 19 21 23 25 28 31 33 35 36 36 35 35 35 36 35 33 30 28 27 24 20 18 16 14 13 13 13 13 14 14 15 16 17 17 18
4 3 3 6 7 7 8 7 6 5 4 2 1 3 2 2 5 5 4 4 4 6 7 9 8 8 6 7 7 6 6 6 6 2 2 3 3 5 7 7 7 7 8 10 10 10 11 13 15 17 19 21 23 24 26 29 32 34 36 36 37 37 37 39 38 36 33 31 29 26 23 21 19 16 15 14 14 13 13 14 15 15 16 17 17 18
3 3 4 6 7 9 11 8 5 4 3 2 2 4 4 2 3 5 5 2 5 6 6 8 8 7 6 7 6 6 7 5 1 2 2 2 3 4 6 6 5 6 7 9 11 11 12 14 16 17 19 21 22 24 27 30 33 35 36 36 37 38 40 40 37 34 33 31 28 26 23 21 19 17 16 15 14 14 14 14 15 16 16 17 18 18
4 3 3 5 6 7 9 7 5 4 3 5 4 2 3 3 3 4 1 3 5 7 6 7 7 5 6 8 8 7 4 3 3 2 2 4 3 3 4 5 5 6 6 8 9 11 13 15 16 17 18 19 22 24 27 31 33 34 35 35 37 39 39 38 36 34 33 31 28 26 24 21 19 18 16 16 15 14 14 14 15 15 16 16 17 18
5 5 3 5 5 3 3 5 5 4 3 9 10 3 3 4 2 2 2 2 3 5 5 6 6 5 7 8 8 7 3 4 4 4 3 4 3 1 3 5 6 6 8 10 11 13 16 17 18 19 20 20 23 26 28 31 33 33 34 36 38 38 37 36 35 34 32 31 28 26 24 22 20 18 17 16 15 14 14 15 15 15 15 16 17 18
5 5 4 5 5 4 5 6 4 0 4 11 10 5 6 6 2 2 5 3 2 3 4 4 5 6 8 8 7 7 5 5 6 5 4 5 4 2 3 5 6 7 11 14 16 16 18 20 21 22 21 21 24 27 30 33 33 32 34 36 37 36 36 35 34 33 32 30 28 26 24 22 20 18 17 16 15 14 14 14 14 14 14 15 16 17
3 3 2 2 3 4 3 3 0 2 3 8 5 0 3 5 2 2 4 4 2 3 4 3 4 6 8 8 7 6 6 7 7 6 6 6 5 5 5 6 8 11 14 16 17 17 19 22 22 22 22 23 25 28 31 34 34 33 35 36 35 35 36 35 34 33 32 31 29 27 24 22 20 18 17 16 15 15 14 14 14 14 14 14 15 16
0 1 1 0 1 2 2 1 2 0 3 6 4 1 1 2 1 1 3 2 2 4 4 4 4 6 8 8 6 5 6 7 7 6 7 6 5 6 6 6 10 14 15 15 16 18 20 21 20 20 22 24 27 29 33 35 36 35 35 35 35 36 36 35 35 35 33 31 29 27 24 22 20 18 17 16 16 15 14 14 14 13 13 14 15 15
1 3 2 1 2 2 2 3 4 1 2 5 5 3 2 2 2 2 2 1 2 3 4 4 3 3 5 6 7 7 7 6 6 6 6 6 6 6 6 7 11 16 18 19 20 21 21 21 20 22 24 27 30 32 34 37 38 38 35 33 33 34 34 34 36 35 34 32 29 27 24 22 20 18 17 16 16 15 15 14 13 13 14 14 15 15
2 5 3 4 4 2 1 2 1 2 3 3 3 4 4 4 3 3 3 1 2 2 3 3 2 4 5 6 8 8 7 6 7 6 5 5 5 6 6 9 13 17 20 23 22 21 20 22 24 25 26 30 33 35 36 37 39 39 36 33 33 33 33 34 35 34 33 32 29 27 25 23 20 19 18 17 17 16 15 14 14 14 14 14 14 15
3 4 3 2 3 1 0 2 2 2 4 4 4 6 6 5 4 4 3 2 2 4 4 4 4 5 6 7 7 7 6 7 7 6 6 6 5 6 8 12 17 21 22 23 23 23 23 25 27 27 29 33 35 35 36 38 39 40 38 36 34 33 34 35 34 33 32 30 29 27 25 22 21 19 18 17 17 16 15 14 14 14 14 14 14 14
4 5 3 3 3 3 3 5 6 3 3 5 7 8 9 7 5 5 4 4 6 7 6 5 5 5 6 6 6 6 6 7 7 7 7 6 6 8 12 16 19 21 21 20 20 22 24 27 28 28 30 32 32 32 35 39 40 40 40 38 36 34 35 36 35 33 32 31 29 28 25 23 21 20 18 17 17 15 15 14 13 14 15 14 13 12
6 7 6 5 5 4 3 7 7 5 5 5 5 6 7 6 6 7 7 8 8 7 6 6 6 6 6 7 8 9 8 7 8 8 6 7 11 14 17 19 19 20 20 19 18 20 23 26 27 27 29 31 30 30 34 38 39 39 39 39 38 37 36 37 37 35 34 32 31 28 25 23 22 20 18 17 16 15 15 13 12 13 13 12 11 10
Wind_Direction
209 192 199 218 212 198 196 206 220 98 81 153 191 235 242 252 259 213 123 95 67 259 256 250 260 268 258 152 125 137 147 160 164 168 167 157 154 133 115 99 85 73 60 38 32 33 29 35 46 66 78 83 91 96 101 105 107 108 111 111 109 108 109 110 109 108 105 102 101 98 96 93 90 90 89 88 87 87 87 87 86 85 84 83 83 82
215 215 221 222 200 170 194 200 178 134 163 200 231 243 244 246 255 240 120 105 149 235 250 211 255 263 248 129 116 158 178 177 179 184 177 162 157 137 124 116 94 87 85 74 59 48 40 45 55 70 79 85 88 93 99 103 105 108 113 114 112 112 114 113 111 109 106 103 101 100 99 97 93 91 90 89 87 87 87 86 85 84 83 82 81 79
207 226 230 205 101 95 117 166 190 211 216 218 231 243 253 247 254 257 121 112 167 221 238 138 262 266 212 114 120 161 185 169 131 198 180 165 166 152 137 127 119 122 114 93 73 59 51 49 56 67 77 85 88 91 98 101 104 108 111 111 110 112 113 113 113 112 109 106 106 105 102 99 96 93 93 92 90 89 88 86 85 84 83 81 80 79
204 234 229 151 126 148 138 153 185 207 223 220 219 232 246 222 217 247 155 127 163 232 289 285 276 269 177 128 131 128 138 120 106 121 124 153 167 148 142 138 143 145 130 111 89 69 65 58 57 61 73 86 92 95 99 102 105 108 110 110 111 112 112 112 113 113 112 110 109 107 103 101 97 94 94 93 91 90 89 88 86 85 83 82 81 79
208 1 159 146 159 185 172 160 182 204 225 219 216 228 243 227 221 242 119 125 194 205 235 253 275 262 193 187 174 133 150 151 148 165 162 169 167 156 159 162 157 152 149 132 113 88 72 67 61 60 73 87 94 99 103 105 107 110 112 114 114 115 115 115 115 114 113 112 108 105 102 98 95 91 89 86 85 86 87 87 86 86 85 84 83 81
220 93 125 141 159 190 186 187 196 208 229 227 216 223 239 244 227 210 142 203 243 221 185 221 259 237 156 198 186 148 177 176 173 196 192 182 177 184 181 171 168 163 166 145 123 112 87 80 75 68 72 80 89 103 109 111 114 116 117 119 119 119 119 119 119 119 117 115 112 109 105 98 93 86 79 77 78 81 84 85 87 87 86 85 83 81
198 131 144 142 155 177 191 215 200 192 221 242 222 219 229 238 220 185 179 201 246 255 129 225 261 245 189 196 161 160 196 187 186 210 206 196 189 192 190 180 178 171 166 154 136 125 109 99 92 84 77 75 90 109 115 117 121 123 123 124 124 123 124 124 123 123 122 121 119 116 110 102 96 90 85 84 85 84 85 86 87 86 85 83 82 80
152 154 173 170 164 171 195 224 184 178 208 224 45 198 197 203 203 195 193 208 253 330 149 203 272 275 263 219 129 155 198 200 200 212 211 204 196 193 192 186 180 174 167 158 148 134 121 112 105 100 92 87 104 116 120 123 126 128 129 129 128 127 128 128 128 128 126 123 119 115 110 103 98 97 96 93 91 90 89 88 86 83 82 81 79 78
141 174 190 181 177 194 206 207 159 175 206 287 57 77 129 160 184 183 196 216 265 310 234 198 158 251 256 204 127 157 218 233 208 202 207 200 192 191 190 186 177 168 167 164 157 145 133 125 115 113 110 109 121 123 124 126 127 129 130 130 130 128 127 128 129 129 125 121 117 113 110 105 102 101 99 96 93 91 90 88 85 82 80 78 76 75
67 208 209 179 186 204 181 47 159 185 195 139 124 99 91 86 94 132 199 189 141 242 245 197 169 225 257 195 178 175 226 240 202 193 202 190 185 192 189 182 172 162 167 173 165 156 143 133 125 123 121 120 127 127 126 126 126 126 126 127 127 124 123 124 126 126 123 120 117 113 111 108 105 103 100 97 94 90 88 86 83 81 79 76 74 71
69 355 319 195 201 174 112 60 22 175 132 147 144 108 96 89 89 99 155 138 213 238 241 173 175 229 257 207 206 198 197 191 167 177 185 178 184 192 187 177 169 167 172 173 169 163 151 138 134 131 127 128 131 129 128 126 125 123 122 124 123 121 122 123 124 123 120 118 115 112 111 109 107 105 101 97 93 89 87 84 81 79 77 76 74 71
103 187 210 187 95 106 111 83 41 43 128 165 154 134 130 120 133 152 135 182 241 234 159 60 134 226 231 216 207 203 164 149 166 173 177 179 186 188 182 172 169 172 171 172 173 167 159 151 149 146 138 137 135 131 129 126 125 123 122 124 123 121 122 122 121 120 117 115 113 111 110 109 107 105 102 98 94 90 87 83 80 79 76 74 72 69
206 209 168 68 292 183 150 113 81 86 204 209 164 164 179 169 173 199 183 199 240 236 102 67 180 218 234 249 253 222 189 191 185 158 173 179 181 180 176 169 169 173 175 178 177 168 166 164 163 161 155 149 143 135 133 130 127 125 124 125 124 122 122 122 120 118 116 114 113 112 110 109 107 103 100 96 93 90 86 84 81 77 74 70 66 63
204 214 152 168 209 207 185 163 154 172 190 195 177 178 190 171 179 205 185 227 260 216 97 35 256 222 236 255 257 235 135 81 76 68 137 175 175 175 169 165 168 176 183 185 178 172 173 172 170 168 162 156 150 143 139 135 132 129 128 127 126 124 124 124 122 120 118 116 115 114 111 108 105 101 98 95 92 90 86 83 79 76 72 68 63 59
209 234 177 178 163 171 191 201 159 152 169 189 178 186 203 185 195 207 190 222 246 117 126 142 227 199 179 175 319 339 18 14 33 108 51 156 167 159 153 159 171 183 190 188 180 180 178 176 174 170 167 162 156 152 146 140 137 133 131 130 129 128 128 127 125 123 120 118 116 114 111 108 105 101 98 95 92 90 86 82 78 74 71 66 61 56
214 251 147 160 163 167 182 209 47 126 154 180 49 212 229 212 174 149 101 143 87 65 185 179 235 226 171 97 45 339 275 192 171 149 142 166 163 152 157 173 183 190 192 188 185 184 181 179 178 174 173 168 162 158 152 146 142 139 136 134 133 133 133 131 129 126 123 120 117 114 110 107 104 100 98 95 92 87 82 77 72 68 64 59 53 48
202 248 74 57 14 153 175 164 95 150 159 151 181 198 218 350 100 127 125 73 81 264 230 171 223 231 162 227 167 152 231 189 175 172 167 173 169 170 182 187 189 193 191 188 186 184 182 182 183 182 179 175 170 164 159 153 148 145 142 141 139 137 136 135 132 129 126 123 120 116 112 108 104 100 97 92 88 82 77 72 67 62 57 52 46 40
187 168 89 81 118 91 335 170 98 354 122 150 188 189 143 18 356 168 200 117 154 248 251 181 217 208 181 210 156 165 218 206 188 173 167 176 180 189 197 191 191 194 189 186 184 185 187 186 186 186 184 181 176 168 163 158 153 150 148 147 145 143 141 140 137 134 131 127 124 121 117 112 107 102 97 92 87 82 77 72 66 59 53 47 40 35
203 180 113 71 137 118 323 209 150 49 322 192 213 170 114 211 203 171 192 183 189 236 253 194 211 219 203 193 162 189 213 202 180 170 177 189 192 197 200 193 193 193 186 186 188 188 189 188 188 188 188 186 179 173 167 163 159 155 154 152 149 148 146 144 141 139 136 134 131 127 122 117 111 106 101 96 91 84 77 70 61 54 46 40 34 29
198 224 175 119 119 119 159 212 191 174 142 36 184 162 295 261 209 170 175 193 205 226 253 220 204 212 204 183 171 190 205 188 168 175 194 199 199 199 196 192 192 192 190 191 189 188 187 188 191 191 190 187 181 176 172 168 164 161 159 156 153 152 150 148 146 144 143 141 137 132 128 124 118 113 107 100 92 82 72 64 54 46 38 31 26 21
169 234 194 128 114 167 182 207 201 181 163 166 179 178 185 180 26 247 191 116 234 229 231 255 261 210 162 169 177 183 193 176 167 182 198 199 200 201 199 196 192 189 191 189 182 183 184 186 192 193 191 187 183 181 177 173 170 166 163 160 158 157 155 153 153 152 150 148 144 140 137 134 129 120 113 105 94 81 69 58 47 38 30 23 18 15
183 209 175 150 179 197 190 55 259 212 185 185 190 184 181 165 151 202 209 167 300 265 222 248 276 238 133 153 186 154 151 174 178 188 193 195 199 202 203 200 192 188 188 184 176 178 182 187 190 190 187 187 186 185 183 180 176 173 169 165 164 163 161 161 160 160 158 155 153 152 149 146 140 132 127 118 102 82 65 53 41 32 24 18 13 10
131 152 160 157 183 199 191 35 307 283 305 274 245 197 184 180 175 197 212 178 148 243 27 37 285 277 114 79 45 80 34 210 203 204 197 199 201 200 202 196 189 186 179 170 173 179 185 189 187 184 185 189 190 190 189 186 183 179 175 172 171 169 167 168 167 167 166 164 163 163 161 158 155 151 150 143 116 81 60 46 35 26 18 13 9 5
150 180 170 143 94 83 27 26 177 7 289 241 248 208 196 200 185 202 208 149 172 193 152 165 245 243 163 85 15 24 350 336 250 225 211 208 204 198 199 192 186 182 167 163 177 186 187 186 185 187 189 190 192 193 192 190 187 183 181 179 177 175 174 174 174 174 173 173 173 172 173 172 170 172 176 177 152 85 56 39 28 20 13 8 4 360
182 188 166 144 150 181 200 218 211 193 199 219 212 183 208 171 98 69 95 135 221 200 163 197 243 223 143 267 307 336 276 255 239 228 220 213 203 197 197 191 186 179 172 175 184 187 188 189 191 192 192 192 193 194 193 192 190 188 187 185 182 180 180 179 179 179 179 180 181 181 183 184 184 187 196 203 191 109 57 34 23 14 7 2 358 354
194 191 175 176 188 196 198 212 211 176 161 213 183 168 206 179 155 159 157 184 226 186 156 205 243 222 119 217 247 220 201 233 220 206 217 220 209 203 193 187 186 183 187 191 190 189 190 193 195 193 191 192 194 193 192 192 192 192 192 190 187 185 184 184 184 184 184 186 187 190 192 193 195 201 209 213 203 136 52 26 14 6 1 355 351 348
181 205 213 214 216 200 176 194 136 125 144 187 183 169 194 197 187 188 187 201 202 151 179 223 234 242 213 186 204 207 191 218 212 184 200 214 210 206 192 185 188 191 198 197 191 190 193 195 197 196 195 195 195 194 193 193 193 194 194 193 192 190 188 188 188 188 189 190 193 197 198 200 204 208 213 215 208 164 30 11 3 358 354 349 345 342
136 211 225 235 258 38 64 49 125 139 169 190 186 184 195 193 186 196 208 203 140 138 234 232 205 235 240 188 182 198 194 212 217 192 199 203 196 193 179 178 190 199 204 201 196 199 200 201 201 199 198 195 193 195 195 196 197 197 197 196 193 193 193 193 192 192 193 195 199 202 203 205 208 210 215 217 212 210 0 356 352 349 346 342 339 336
143 220 220 209 246 12 54 39 153 131 155 194 195 198 196 186 183 198 214 201 148 193 243 214 156 224 245 194 181 195 193 202 207 193 188 174 171 176 173 180 196 206 209 206 206 206 204 205 203 199 196 192 191 194 196 198 200 200 200 198 196 196 196 196 196 197 199 200 202 205 205 206 208 211 216 218 217 251 330 339 340 340 337 334 331 329
164 211 128 164 219 19 47 33 139 141 180 213 216 216 203 186 183 193 216 212 196 223 244 210 177 235 242 163 177 190 175 180 170 137 152 172 183 181 180 192 203 210 212 211 211 209 206 207 202 196 193 188 189 194 196 200 202 202 202 201 200 200 199 199 200 201 201 201 204 205 205 206 208 212 217 219 224 258 309 326 329 329 327 325 324 322
236 180 112 132 183 161 77 66 61 37 223 221 239 237 203 160 177 202 222 222 212 232 246 238 237 250 211 138 160 137 112 138 163 175 187 198 199 181 183 201 212 218 219 216 215 211 206 204 198 194 194 193 194 197 199 203 204 203 203 203 203 203 201 201 202 202 202 202 204 205 204 204 207 213 219 222 232 266 303 317 320 320 318 318 317 316
234 165 85 106 191 200 142 129 116 65 27 259 253 241 183 147 190 215 222 220 206 220 237 238 244 248 177 140 161 148 156 195 203 198 197 204 200 187 195 210 217 222 222 217 215 211 204 201 198 196 196 197 199 201 204 206 205 204 205 205 204 204 203 202 202 201 201 203 204 204 202 204 208 215 222 226 241 276 302 309 312 313 312 311 311 310
170 154 105 154 190 204 61 144 139 109 182 245 249 226 183 184 209 220 223 222 209 207 219 225 235 241 146 148 182 185 194 213 215 208 206 207 199 195 208 217 218 222 221 215 214 209 203 202 201 199 199 201 204 207 209 209 206 206 206 205 204 204 202 201 200 200 202 203 204 203 202 205 211 218 225 232 252 281 298 303 306 307 306 305 307 306
153 160 163 178 184 208 55 135 134 177 225 240 250 166 192 200 207 215 224 222 208 206 222 236 247 244 152 159 191 199 203 211 216 214 209 209 206 205 213 218 220 224 222 215 212 208 206 206 205 203 205 208 210 211 212 210 207 207 206 204 203 202 200 199 199 200 202 202 202 203 203 208 214 220 228 239 261 281 292 298 300 300 299 300 302 303
173 179 187 168 156 142 128 149 182 213 232 252 44 35 239 201 197 214 233 231 209 205 218 234 245 237 199 186 201 206 201 191 214 239 221 213 210 202 206 215 216 217 216 211 212 211 208 206 205 206 210 212 212 211 210 209 208 207 205 202 201 199 198 199 199 199 202 202 202 204 206 211 216 221 231 245 263 277 286 290 292 293 294 297 300 302
178 182 177 150 149 122 142 184 204 246 304 295 253 153 143 140 149 198 248 244 210 193 201 219 231 227 204 205 207 184 119 102 285 249 217 209 206 195 204 215 209 204 206 205 208 209 209 208 208 211 213 212 211 209 209 209 207 204 201 200 199 198 198 199 198 199 202 203 204 206 209 214 218 223 234 247 260 271 278 283 285 287 290 294 298 300
180 181 180 191 188 164 183 210 231 320 311 274 244 175 169 175 156 179 242 244 194 177 193 213 225 221 210 204 167 101 95 125 278 253 205 196 201 202 210 217 197 194 203 208 217 224 225 224 222 221 218 213 209 208 207 207 205 200 198 197 196 196 197 198 199 202 204 205 206 209 213 216 219 226 236 246 256 265 272 276 280 284 289 293 296 297
207 197 192 205 205 181 195 225 240 259 260 257 242 153 165 185 153 158 232 255 174 178 191 200 215 224 216 170 125 127 136 227 270 260 187 180 200 207 216 226 213 203 196 192 205 217 221 221 220 220 218 212 209 208 207 205 201 197 195 193 193 195 196 198 202 206 206 207 210 213 216 217 221 228 236 244 253 261 268 273 277 283 287 291 294 295
214 237 203 215 218 198 201 218 224 227 241 259 263 120 151 173 122 115 239 261 186 186 192 191 208 224 212 157 145 156 161 217 251 255 146 165 198 202 204 216 221 219 210 198 196 197 201 202 200 202 204 202 202 204 203 201 197 193 192 192 193 194 196 201 207 209 208 210 213 215 216 218 223 229 235 243 252 258 265 271 276 281 286 288 292 295
194 201 206 219 222 214 213 220 227 235 257 284 207 130 144 157 126 140 239 250 173 184 191 183 200 222 202 163 155 167 190 219 240 260 106 143 178 188 199 209 212 212 214 211 205 197 193 190 185 185 190 194 196 196 195 194 192 190 192 194 194 196 202 209 212 211 210 212 213 214 216 220 224 229 235 243 250 257 263 270 274 278 284 287 290 293
187 194 202 219 225 223 224 230 242 244 234 202 176 155 148 141 153 195 224 180 156 190 194 183 201 212 177 153 160 192 214 216 175 52 86 140 156 186 202 207 204 202 204 207 204 196 188 187 188 189 193 196 194 191 191 190 189 191 195 196 197 203 211 215 214 211 211 212 212 214 217 220 224 229 235 242 249 256 261 267 272 277 282 285 288 292
174 178 198 217 222 227 232 239 257 256 201 132 116 117 164 176 190 209 203 107 157 187 191 196 208 193 161 170 191 208 204 126 104 112 167 186 190 177 174 179 185 192 191 194 199 198 193 193 197 200 201 200 197 194 192 190 191 194 196 197 203 213 217 215 212 211 211 211 211 214 217 220 224 229 236 243 249 254 261 266 271 276 280 283 287 291
166 160 187 210 203 203 230 230 237 256 177 130 115 99 231 210 177 141 117 107 170 174 173 197 209 190 179 192 208 213 175 130 165 196 190 199 214 163 161 181 189 190 188 190 198 204 202 201 203 206 206 203 201 199 195 193 194 197 198 204 213 218 216 213 212 212 210 210 212 215 217 220 225 230 236 244 250 254 260 265 269 274 278 282 287 292
181 175 198 212 190 169 200 216 215 263 168 157 146 158 203 192 147 143 155 155 191 180 168 192 209 200 196 200 210 212 193 176 198 207 199 208 212 194 198 207 202 200 200 202 206 209 206 206 210 211 210 208 207 204 200 199 199 198 203 212 219 218 214 214 213 210 208 209 212 214 217 220 224 231 236 243 250 254 258 263 267 271 276 281 287 292
203 179 195 213 194 186 204 219 337 24 181 181 171 88 177 164 152 174 151 133 171 185 170 190 203 196 199 206 209 206 201 203 206 202 203 214 212 205 214 218 213 213 212 212 213 212 210 213 216 215 213 215 214 209 206 206 203 202 210 218 220 217 215 213 209 206 207 209 211 214 217 219 224 231 237 242 248 253 257 261 265 268 273 280 286 290
12 110 165 187 216 246 266 126 119 317 218 196 195 353 75 141 153 160 140 142 186 177 167 189 199 188 191 200 202 206 212 211 204 199 205 215 219 214 215 222 227 228 225 220 217 216 216 217 218 216 217 219 219 215 212 210 208 210 217 221 218 217 215 210 205 204 206 208 211 213 215 219 223 229 234 241 246 251 254 258 261 266 272 278 282 286
197 153 173 209 213 229 217 153 139 149 223 205 209 239 259 228 194 181 189 186 159 167 188 204 196 164 168 183 198 216 222 209 201 208 208 207 216 218 213 218 227 228 228 226 224 221 217 213 213 216 219 222 223 221 218 215 214 216 220 221 218 215 212 207 205 205 206 207 210 211 213 218 223 226 232 238 242 247 251 254 258 263 267 274 279 283
175 148 168 224 218 184 147 176 173 324 287 237 224 242 252 235 195 192 220 211 126 165 200 203 171 151 160 185 202 217 228 217 207 215 216 206 214 218 215 221 228 230 231 231 228 222 215 212 215 218 220 224 228 226 223 221 220 219 219 221 220 215 210 207 207 208 208 209 209 211 214 218 221 224 229 234 239 243 247 251 256 261 266 271 275 277
119 155 175 192 181 145 311 210 194 312 288 250 226 231 243 239 213 204 207 188 194 208 203 201 200 187 190 201 197 201 226 230 215 215 223 224 222 218 220 229 234 236 236 233 228 224 218 218 220 221 223 229 232 230 227 226 224 221 219 221 220 215 210 209 209 209 210 210 209 212 214 216 219 223 226 231 236 240 244 249 254 260 265 269 271 275
160 197 178 127 169 214 210 181 169 176 230 223 214 222 230 225 211 213 212 201 214 218 203 197 211 210 218 227 205 187 215 233 222 213 220 227 225 223 228 234 237 240 241 236 231 227 224 225 226 226 228 233 234 231 230 229 227 224 221 220 219 216 212 210 208 207 209 210 210 212 213 213 217 221 223 228 233 237 241 247 252 259 265 270 274 281
194 206 171 163 218 234 169 162 177 197 218 215 205 214 223 211 191 206 221 219 220 218 198 193 210 216 224 231 215 201 212 229 222 212 216 231 234 233 235 238 239 241 243 239 232 229 230 231 230 231 234 236 235 234 234 233 230 227 224 221 220 217 215 212 208 206 208 210 211 212 212 213 217 219 220 224 229 233 237 240 246 258 268 271 274 276